Location: Altmatt
(47.1333°N, 8.7000°E)
Time: 01:26:07
(UTC+00:00)

ALOS 2 - Pass Details

Date: 13 July 2020
Orbit: 630 x 632 km, 97.9° (Epoch: 11 August)

Event Time Altitude Azimuth Distance (km) Brightness Sun altitude
Exits shadow 23:07:48 50° 214° (SW) 810 2.8 -21.0°
Maximum altitude 23:08:36 59° 259° (W) 731 2.8 -21.0°
Drops below altitude 10° 23:12:58 10° 340° (NNW) 2,024 6.3 -21.1°
Sets 23:15:12 0° 344° (NNW) 2,937 7.5 -21.1°
